Location: Unspecified
(51.0950°N, 12.9690°E)
Time: 22:38:10
(UTC+00:00)

AAUSAT CUBESAT 2 - Visible Passes

Search period start: 18 April 2024 00:00
Search period end: 28 April 2024 00:00
Orbit: 518 x 529 km, 97.6° (Epoch: 17 April)

Date Brightness Start Highest point End Pass type
(mag) Time Alt. Az. Time Alt. Az. Time Alt. Az.
18 Apr ? 03:10:34 10° NNE 03:14:01 31° E 03:17:27 10° SSE visible
19 Apr ? 02:58:20 10° NE 03:01:29 24° E 03:04:37 10° SSE visible
20 Apr ? 02:46:10 10° NE 02:48:51 18° E 02:51:32 10° SE visible
21 Apr ? 02:34:10 10° ENE 02:36:09 14° E 02:38:09 10° ESE visible
22 Apr ? 02:23:05 10° E 02:23:21 10° E 02:23:38 10° E visible
25 Apr ? 03:16:09 10° NNE 03:19:42 36° E 03:23:14 10° SSE visible
26 Apr ? 03:03:26 10° NE 03:06:43 26° E 03:09:58 10° SSE visible
27 Apr ? 02:50:46 10° NE 02:53:38 20° E 02:56:29 10° SE visible
